NGN4820 EDDG-LGRP

Flight info

Callsign NGN4820
Flight time 3h 4m
Altitude 35000
Route DOMEG Z841 GMH Q603 TESGA DCT ESATI DCT DETEV DCT DINKU DCT BESNI DCT LATLO DCT OBEDI DCT CEPRA DCT PODET DCT IRDIV DCT REMSO DCT MEDUX UM867 KOGAT DCT ERANA UL737 TSL UN130 MES UN139 LURUS UL995 CODIC
Aircraft A320/M-SDE3FGHIRWY/LB1

Departure

Time 2026-04-26 11:25
Airport Münster Osnabrück Airport (EDDG)

Arrival

Time 2026-04-26 14:29
Airport Rhodes International Airport "Diagoras" (LGRP)
Time Latitude Longitude Altitude Speed Heading
2026-04-26 10:57 52.13171 7.69375 168 ft 0 kts 198°
2026-04-26 11:15 52.13191 7.69386 167 ft 4 kts 200°
2026-04-26 11:16 52.13216 7.69402 167 ft 4 kts 206°
2026-04-26 11:16 52.13239 7.69424 167 ft 4 kts 220°
2026-04-26 11:16 52.13254 7.69453 167 ft 1 kts 251°
2026-04-26 11:16 52.13254 7.69454 167 ft 0 kts 251°
2026-04-26 11:19 52.13250 7.69433 167 ft 4 kts 251°
2026-04-26 11:19 52.13236 7.69369 167 ft 6 kts 251°
2026-04-26 11:20 52.13218 7.69282 167 ft 10 kts 251°
2026-04-26 11:20 52.13201 7.69201 167 ft 13 kts 251°
2026-04-26 11:20 52.13162 7.69016 167 ft 12 kts 255°
2026-04-26 11:20 52.13201 7.68931 167 ft 11 kts 340°
2026-04-26 11:21 52.13287 7.68883 167 ft 15 kts 341°
2026-04-26 11:21 52.13355 7.68812 167 ft 11 kts 282°
2026-04-26 11:21 52.13330 7.68670 167 ft 16 kts 251°
2026-04-26 11:21 52.13287 7.68469 167 ft 20 kts 251°
2026-04-26 11:22 52.13239 7.68240 167 ft 22 kts 251°
2026-04-26 11:22 52.13187 7.67991 167 ft 24 kts 251°
2026-04-26 11:22 52.13128 7.67723 167 ft 27 kts 250°
2026-04-26 11:22 52.13064 7.67427 167 ft 28 kts 251°
2026-04-26 11:23 52.13013 7.67173 167 ft 12 kts 260°
2026-04-26 11:23 52.13065 7.67071 167 ft 14 kts 339°
2026-04-26 11:23 52.13154 7.67040 166 ft 10 kts 29°
2026-04-26 11:23 52.13171 7.67088 166 ft 0 kts 71°
2026-04-26 11:24 52.13174 7.67102 166 ft 13 kts 71°
2026-04-26 11:24 52.13295 7.67680 166 ft 91 kts 71°
2026-04-26 11:24 52.13569 7.68971 171 ft 148 kts 70°
2026-04-26 11:25 52.13911 7.70601 688 ft 153 kts 70°
2026-04-26 11:25 52.14252 7.72270 1389 ft 157 kts 72°
2026-04-26 11:25 52.14600 7.73977 2007 ft 162 kts 71°
2026-04-26 11:25 52.14994 7.75833 2208 ft 185 kts 71°
2026-04-26 11:26 52.15436 7.77934 2408 ft 207 kts 75°
2026-04-26 11:26 52.15478 7.80377 2680 ft 228 kts 106°
2026-04-26 11:26 52.14674 7.82630 3250 ft 242 kts 136°
2026-04-26 11:26 52.13151 7.83957 3852 ft 256 kts 161°
2026-04-26 11:27 52.11451 7.84826 4608 ft 262 kts 166°
2026-04-26 11:27 52.09598 7.85148 5403 ft 268 kts 183°
2026-04-26 11:27 52.07741 7.84616 6131 ft 274 kts 200°
2026-04-26 11:27 52.05965 7.83417 6894 ft 279 kts 205°
2026-04-26 11:28 52.04205 7.82143 7597 ft 283 kts 205°
2026-04-26 11:28 52.02391 7.80850 8317 ft 287 kts 206°
2026-04-26 11:28 52.00552 7.79540 9050 ft 291 kts 206°
2026-04-26 11:28 51.98688 7.78218 9782 ft 294 kts 206°
2026-04-26 11:29 51.96803 7.76877 10473 ft 298 kts 206°
2026-04-26 11:29 51.94841 7.75486 10717 ft 319 kts 206°
2026-04-26 11:29 51.92733 7.73999 10855 ft 341 kts 206°
2026-04-26 11:29 51.90506 7.72429 11196 ft 354 kts 206°
2026-04-26 11:30 51.88228 7.70827 11814 ft 359 kts 206°
2026-04-26 11:30 51.86710 7.69764 12244 ft 360 kts 206°
2026-04-26 11:30 51.83617 7.67588 13151 ft 364 kts 206°
2026-04-26 11:30 51.81290 7.65958 13845 ft 366 kts 206°
2026-04-26 11:31 51.78942 7.64315 14490 ft 369 kts 205°
2026-04-26 11:31 51.76582 7.62661 15096 ft 372 kts 205°
2026-04-26 11:31 51.74173 7.61084 15680 ft 376 kts 199°
2026-04-26 11:31 51.71597 7.60239 16254 ft 382 kts 186°
2026-04-26 11:32 51.68926 7.60314 16812 ft 387 kts 174°
2026-04-26 11:32 51.66297 7.61329 17395 ft 392 kts 162°
2026-04-26 11:32 51.63723 7.62821 17982 ft 395 kts 161°
2026-04-26 11:32 51.61131 7.64325 18566 ft 397 kts 162°
2026-04-26 11:33 51.58513 7.65816 19099 ft 400 kts 162°
2026-04-26 11:33 51.55878 7.67306 19639 ft 403 kts 162°
2026-04-26 11:33 51.53228 7.68812 20192 ft 406 kts 162°
2026-04-26 11:33 51.50556 7.70336 20755 ft 409 kts 162°
2026-04-26 11:34 51.47866 7.71863 21316 ft 412 kts 162°
2026-04-26 11:34 51.45152 7.73384 21850 ft 414 kts 162°
2026-04-26 11:34 51.42463 7.74901 22339 ft 417 kts 162°
2026-04-26 11:34 51.39717 7.76454 22837 ft 420 kts 162°
2026-04-26 11:35 51.36953 7.78014 23328 ft 423 kts 162°
2026-04-26 11:35 51.34174 7.79595 23819 ft 425 kts 162°
2026-04-26 11:35 51.31371 7.81173 24214 ft 428 kts 162°
2026-04-26 11:35 51.29467 7.82233 24482 ft 430 kts 162°
2026-04-26 11:36 51.25717 7.84341 25001 ft 433 kts 162°
2026-04-26 11:36 51.22869 7.85941 25405 ft 435 kts 162°
2026-04-26 11:36 51.20003 7.87542 25802 ft 438 kts 162°
2026-04-26 11:36 51.17159 7.89327 26193 ft 441 kts 155°
2026-04-26 11:37 51.14490 7.91761 26579 ft 444 kts 148°
2026-04-26 11:37 51.11888 7.94443 26963 ft 446 kts 148°
2026-04-26 11:37 51.09270 7.97122 27341 ft 449 kts 149°
2026-04-26 11:37 51.06645 7.99788 27834 ft 447 kts 149°
2026-04-26 11:38 51.04033 8.02452 28367 ft 445 kts 148°
2026-04-26 11:38 51.01435 8.05100 28934 ft 443 kts 149°
2026-04-26 11:38 50.98843 8.07718 29536 ft 439 kts 149°
2026-04-26 11:38 50.96277 8.10301 30139 ft 436 kts 149°
2026-04-26 11:39 50.93722 8.12870 30633 ft 433 kts 149°
2026-04-26 11:39 50.91181 8.15420 31043 ft 433 kts 149°
2026-04-26 11:39 50.88647 8.17989 31416 ft 433 kts 149°
2026-04-26 11:39 50.86103 8.20539 31788 ft 433 kts 149°
2026-04-26 11:40 50.83558 8.23094 32163 ft 433 kts 149°
2026-04-26 11:40 50.81014 8.25644 32531 ft 433 kts 149°
2026-04-26 11:40 50.78464 8.28194 32910 ft 434 kts 149°
2026-04-26 11:40 50.75914 8.30749 33281 ft 434 kts 149°
2026-04-26 11:41 50.73362 8.33294 33659 ft 434 kts 149°
2026-04-26 11:42 50.55353 8.51164 35302 ft 450 kts 150°
2026-04-26 11:43 50.50029 8.56437 35303 ft 454 kts 150°
2026-04-26 11:43 50.44713 8.61811 35298 ft 456 kts 144°
2026-04-26 11:44 50.40036 8.68591 35300 ft 459 kts 137°
2026-04-26 11:44 50.35440 8.75530 35288 ft 459 kts 138°
2026-04-26 11:45 50.31609 8.81295 35292 ft 459 kts 138°
2026-04-26 11:45 50.26995 8.88217 35276 ft 460 kts 138°
2026-04-26 11:46 50.21621 8.96257 35275 ft 460 kts 138°
2026-04-26 11:46 50.17733 9.02027 35276 ft 461 kts 138°
2026-04-26 11:47 50.13091 9.08927 35279 ft 461 kts 138°
2026-04-26 11:47 50.08449 9.15816 35287 ft 461 kts 138°
2026-04-26 11:48 50.03807 9.22698 35269 ft 461 kts 139°
2026-04-26 11:48 49.99186 9.29512 35274 ft 461 kts 139°
2026-04-26 11:49 49.94537 9.36350 35270 ft 461 kts 139°
2026-04-26 11:49 49.89881 9.43189 35269 ft 461 kts 139°
2026-04-26 11:50 49.85225 9.50010 35275 ft 460 kts 139°
2026-04-26 11:50 49.80565 9.56813 35271 ft 460 kts 139°
2026-04-26 11:51 49.75901 9.63594 35266 ft 460 kts 139°
2026-04-26 11:51 49.71232 9.70352 35265 ft 460 kts 139°
2026-04-26 11:52 49.66559 9.77095 35270 ft 460 kts 139°
2026-04-26 11:52 49.61884 9.83828 35269 ft 460 kts 139°
2026-04-26 11:53 49.57209 9.90554 35273 ft 460 kts 140°
2026-04-26 11:54 49.50181 10.00613 35274 ft 459 kts 140°
2026-04-26 11:54 49.45532 10.07253 35283 ft 459 kts 140°
2026-04-26 11:55 49.40848 10.13923 35282 ft 459 kts 140°
2026-04-26 11:55 49.36162 10.20568 35285 ft 459 kts 140°
2026-04-26 11:56 49.31474 10.27205 35282 ft 458 kts 140°
2026-04-26 11:56 49.26785 10.33830 35267 ft 459 kts 140°
2026-04-26 11:57 49.22105 10.40475 35281 ft 459 kts 139°
2026-04-26 11:57 49.17549 10.47320 35291 ft 459 kts 139°
2026-04-26 11:58 49.12969 10.54125 35294 ft 459 kts 139°
2026-04-26 11:58 49.08386 10.60914 35298 ft 459 kts 139°
2026-04-26 11:59 49.03794 10.67689 35290 ft 460 kts 139°
2026-04-26 11:59 48.99193 10.74461 35277 ft 460 kts 139°
2026-04-26 12:00 48.94583 10.81225 35271 ft 460 kts 139°
2026-04-26 12:00 48.89962 10.87981 35270 ft 461 kts 139°
2026-04-26 12:01 48.85345 10.94728 35263 ft 461 kts 139°
2026-04-26 12:01 48.80726 11.01466 35258 ft 461 kts 139°
2026-04-26 12:02 48.76129 11.08151 35245 ft 461 kts 139°
2026-04-26 12:02 48.71488 11.14869 35248 ft 461 kts 139°
2026-04-26 12:03 48.66846 11.21572 35250 ft 461 kts 139°
2026-04-26 12:03 48.62314 11.28448 35241 ft 463 kts 134°
2026-04-26 12:04 48.58024 11.35716 35250 ft 463 kts 134°
2026-04-26 12:04 48.53688 11.42913 35246 ft 463 kts 134°
2026-04-26 12:05 48.49347 11.50098 35226 ft 463 kts 134°
2026-04-26 12:05 48.45004 11.57287 35238 ft 464 kts 134°
2026-04-26 12:06 48.40653 11.64450 35247 ft 464 kts 134°
2026-04-26 12:06 48.36292 11.71602 35250 ft 464 kts 134°
2026-04-26 12:07 48.31935 11.78745 35252 ft 464 kts 134°
2026-04-26 12:07 48.27566 11.85871 35251 ft 464 kts 134°
2026-04-26 12:08 48.23200 11.92992 35243 ft 464 kts 134°
2026-04-26 12:08 48.18855 12.00052 35236 ft 464 kts 134°
2026-04-26 12:09 48.14470 12.07135 35233 ft 464 kts 134°
2026-04-26 12:09 48.10087 12.14231 35224 ft 464 kts 134°
2026-04-26 12:10 48.05685 12.21315 35227 ft 465 kts 134°
2026-04-26 12:10 48.01281 12.28390 35228 ft 465 kts 134°
2026-04-26 12:11 47.96873 12.35463 35217 ft 465 kts 134°
2026-04-26 12:11 47.92455 12.42510 35226 ft 465 kts 134°
2026-04-26 12:12 47.88038 12.49565 35228 ft 465 kts 134°
2026-04-26 12:12 47.83610 12.56598 35231 ft 465 kts 135°
2026-04-26 12:13 47.79183 12.63627 35229 ft 465 kts 135°
2026-04-26 12:13 47.74747 12.70635 35235 ft 465 kts 135°
2026-04-26 12:14 47.70340 12.77582 35222 ft 465 kts 135°
2026-04-26 12:14 47.65845 12.84481 35226 ft 465 kts 137°
2026-04-26 12:15 47.61258 12.91232 35227 ft 465 kts 136°
2026-04-26 12:15 47.56681 12.97993 35220 ft 464 kts 136°
2026-04-26 12:16 47.52103 13.04742 35215 ft 464 kts 136°
2026-04-26 12:16 47.47521 13.11465 35208 ft 464 kts 136°
2026-04-26 12:17 47.42931 13.18187 35202 ft 464 kts 137°
2026-04-26 12:17 47.38346 13.24891 35205 ft 464 kts 137°
2026-04-26 12:18 47.33787 13.31535 35202 ft 464 kts 135°
2026-04-26 12:18 47.29793 13.39027 35200 ft 466 kts 127°
2026-04-26 12:19 47.26003 13.46766 35214 ft 466 kts 127°
2026-04-26 12:19 47.22198 13.54475 35203 ft 465 kts 127°
2026-04-26 12:20 47.18392 13.62164 35194 ft 465 kts 127°
2026-04-26 12:20 47.14582 13.69842 35178 ft 465 kts 127°
2026-04-26 12:21 47.10769 13.77514 35185 ft 465 kts 127°
2026-04-26 12:21 47.06947 13.85171 35183 ft 465 kts 128°
2026-04-26 12:22 47.03121 13.92807 35154 ft 465 kts 127°
2026-04-26 12:22 46.99292 14.00428 35150 ft 464 kts 127°
2026-04-26 12:23 46.95462 14.08053 35144 ft 464 kts 127°
2026-04-26 12:23 46.91620 14.15650 35121 ft 465 kts 127°
2026-04-26 12:24 46.87781 14.23255 35133 ft 465 kts 127°
2026-04-26 12:24 46.83931 14.30843 35144 ft 465 kts 127°
2026-04-26 12:25 46.78161 14.42156 35153 ft 465 kts 127°
2026-04-26 12:25 46.74293 14.49720 35154 ft 465 kts 127°
2026-04-26 12:26 46.70423 14.57274 35147 ft 465 kts 127°
2026-04-26 12:26 46.66545 14.64825 35146 ft 465 kts 128°
2026-04-26 12:27 46.62669 14.72360 35142 ft 465 kts 127°
2026-04-26 12:27 46.58791 14.79883 35120 ft 465 kts 128°
2026-04-26 12:28 46.54900 14.87389 35122 ft 465 kts 128°
2026-04-26 12:28 46.51009 14.94889 35118 ft 465 kts 128°
2026-04-26 12:29 46.47104 15.02373 35118 ft 465 kts 128°
2026-04-26 12:30 46.41249 15.13587 35120 ft 465 kts 128°
2026-04-26 12:30 46.37333 15.21048 35123 ft 466 kts 127°
2026-04-26 12:31 46.31775 15.32610 35113 ft 466 kts 125°
2026-04-26 12:31 46.28052 15.40285 35136 ft 466 kts 126°
2026-04-26 12:32 46.24317 15.47955 35128 ft 466 kts 126°
2026-04-26 12:33 46.18716 15.59433 35139 ft 466 kts 126°
2026-04-26 12:33 46.14445 15.66434 35145 ft 465 kts 137°
2026-04-26 12:34 46.09743 15.72844 35141 ft 465 kts 137°
2026-04-26 12:34 46.05052 15.79278 35143 ft 466 kts 137°
2026-04-26 12:35 46.00391 15.85661 35140 ft 466 kts 137°
2026-04-26 12:35 45.95689 15.92073 35145 ft 466 kts 137°
2026-04-26 12:36 45.90979 15.98479 35151 ft 466 kts 137°
2026-04-26 12:36 45.86270 16.04878 35151 ft 466 kts 137°
2026-04-26 12:37 45.81553 16.11253 35152 ft 466 kts 137°
2026-04-26 12:37 45.76841 16.17636 35149 ft 466 kts 137°
2026-04-26 12:38 45.72923 16.22913 35153 ft 466 kts 137°
2026-04-26 12:38 45.68200 16.29266 35159 ft 466 kts 137°
2026-04-26 12:39 45.63478 16.35604 35158 ft 466 kts 137°
2026-04-26 12:39 45.58757 16.41944 35158 ft 466 kts 137°
2026-04-26 12:40 45.54019 16.48272 35165 ft 466 kts 137°
2026-04-26 12:40 45.49267 16.54564 35163 ft 466 kts 137°
2026-04-26 12:41 45.44528 16.60875 35162 ft 466 kts 137°
2026-04-26 12:41 45.39781 16.67165 35144 ft 466 kts 137°
2026-04-26 12:42 45.35032 16.73454 35157 ft 466 kts 137°
2026-04-26 12:42 45.30285 16.79723 35144 ft 466 kts 138°
2026-04-26 12:43 45.25524 16.85974 35145 ft 466 kts 138°
2026-04-26 12:43 45.20798 16.92181 35145 ft 466 kts 138°
2026-04-26 12:44 45.16040 16.98419 35146 ft 466 kts 138°
2026-04-26 12:44 45.11274 17.04634 35139 ft 466 kts 138°
2026-04-26 12:45 45.06516 17.10854 35123 ft 466 kts 138°
2026-04-26 12:45 45.01596 17.16804 35119 ft 465 kts 140°
2026-04-26 12:46 44.96665 17.22719 35147 ft 465 kts 140°
2026-04-26 12:46 44.91739 17.28627 35152 ft 465 kts 140°
2026-04-26 12:47 44.86802 17.34531 35150 ft 465 kts 140°
2026-04-26 12:47 44.81864 17.40407 35138 ft 465 kts 140°
2026-04-26 12:48 44.76930 17.46277 35124 ft 464 kts 140°
2026-04-26 12:48 44.71991 17.52139 35140 ft 464 kts 140°
2026-04-26 12:49 44.67088 17.57940 35133 ft 464 kts 140°
2026-04-26 12:49 44.62121 17.63814 35127 ft 464 kts 140°
2026-04-26 12:50 44.57216 17.69589 35115 ft 464 kts 140°
2026-04-26 12:50 44.52275 17.75422 35113 ft 464 kts 140°
2026-04-26 12:51 44.47322 17.81238 35115 ft 465 kts 141°
2026-04-26 12:51 44.42356 17.87033 35126 ft 465 kts 141°
2026-04-26 12:52 44.37387 17.92828 35134 ft 465 kts 140°
2026-04-26 12:52 44.32429 17.98611 35118 ft 464 kts 141°
2026-04-26 12:53 44.27468 18.04391 35121 ft 464 kts 140°
2026-04-26 12:53 44.22505 18.10151 35120 ft 464 kts 141°
2026-04-26 12:54 44.17526 18.15898 35124 ft 465 kts 141°
2026-04-26 12:54 44.12538 18.21642 35109 ft 465 kts 141°
2026-04-26 12:55 44.07564 18.27397 35114 ft 465 kts 141°
2026-04-26 12:55 44.02612 18.33088 35116 ft 465 kts 141°
2026-04-26 12:56 43.97618 18.38804 35117 ft 465 kts 141°
2026-04-26 12:56 43.92625 18.44518 35120 ft 465 kts 141°
2026-04-26 12:57 43.87627 18.50236 35121 ft 465 kts 141°
2026-04-26 12:57 43.82629 18.55923 35107 ft 465 kts 141°
2026-04-26 12:58 43.75120 18.64457 35106 ft 465 kts 142°
2026-04-26 12:58 43.70109 18.70122 35100 ft 465 kts 142°
2026-04-26 12:59 43.65101 18.75791 35094 ft 465 kts 142°
2026-04-26 12:59 43.60122 18.81401 35088 ft 465 kts 142°
2026-04-26 13:00 43.55104 18.87054 35089 ft 466 kts 142°
2026-04-26 13:00 43.50081 18.92702 35087 ft 466 kts 142°
2026-04-26 13:01 43.45307 18.98746 35082 ft 467 kts 133°
2026-04-26 13:01 43.40920 19.05353 35086 ft 467 kts 133°
2026-04-26 13:02 43.36499 19.11908 35084 ft 468 kts 134°
2026-04-26 13:02 43.32081 19.18476 35082 ft 468 kts 133°
2026-04-26 13:03 43.27650 19.25025 35085 ft 468 kts 134°
2026-04-26 13:03 43.23216 19.31576 35091 ft 469 kts 134°
2026-04-26 13:04 43.18776 19.38122 35093 ft 469 kts 134°
2026-04-26 13:04 43.14325 19.44657 35089 ft 469 kts 134°
2026-04-26 13:05 43.09877 19.51192 35090 ft 469 kts 134°
2026-04-26 13:05 43.05412 19.57711 35081 ft 469 kts 134°
2026-04-26 13:06 43.00948 19.64223 35077 ft 469 kts 134°
2026-04-26 13:06 42.96479 19.70733 35077 ft 470 kts 134°
2026-04-26 13:07 42.92015 19.77240 35077 ft 470 kts 134°
2026-04-26 13:07 42.87530 19.83731 35076 ft 470 kts 134°
2026-04-26 13:08 42.83044 19.90227 35073 ft 471 kts 134°
2026-04-26 13:08 42.78548 19.96717 35071 ft 471 kts 134°
2026-04-26 13:09 42.74063 20.03231 35067 ft 472 kts 130°
2026-04-26 13:09 42.69920 20.10169 35076 ft 472 kts 130°
2026-04-26 13:10 42.65742 20.17062 35078 ft 473 kts 130°
2026-04-26 13:10 42.61592 20.23922 35062 ft 474 kts 130°
2026-04-26 13:11 42.57388 20.30809 35055 ft 474 kts 130°
2026-04-26 13:11 42.53177 20.37703 35053 ft 475 kts 130°
2026-04-26 13:12 42.48960 20.44594 35056 ft 475 kts 130°
2026-04-26 13:12 42.44743 20.51475 35057 ft 475 kts 130°
2026-04-26 13:13 42.40515 20.58361 35054 ft 476 kts 130°
2026-04-26 13:13 42.36276 20.65234 35060 ft 476 kts 130°
2026-04-26 13:14 42.32032 20.72114 35064 ft 476 kts 130°
2026-04-26 13:14 42.27788 20.78982 35059 ft 477 kts 131°
2026-04-26 13:15 42.23521 20.85853 35060 ft 478 kts 131°
2026-04-26 13:15 42.19965 20.91562 35057 ft 478 kts 131°
2026-04-26 13:16 42.14988 20.99553 35065 ft 479 kts 131°
2026-04-26 13:16 42.10634 21.06332 35056 ft 478 kts 137°
2026-04-26 13:17 42.03383 21.15556 35054 ft 478 kts 138°
2026-04-26 13:18 41.96110 21.24763 35044 ft 479 kts 138°
2026-04-26 13:19 41.88826 21.33967 35044 ft 479 kts 138°
2026-04-26 13:19 41.83966 21.40096 35045 ft 480 kts 138°
2026-04-26 13:20 41.79102 21.46226 35037 ft 480 kts 138°
2026-04-26 13:20 41.74232 21.52321 35032 ft 479 kts 139°
2026-04-26 13:21 41.69361 21.58405 35030 ft 479 kts 139°
2026-04-26 13:21 41.64524 21.64449 35039 ft 479 kts 139°
2026-04-26 13:22 41.59653 21.70529 35033 ft 479 kts 139°
2026-04-26 13:22 41.54769 21.76600 35039 ft 480 kts 139°
2026-04-26 13:23 41.49879 21.82659 35031 ft 480 kts 139°
2026-04-26 13:23 41.44985 21.88712 35028 ft 480 kts 139°
2026-04-26 13:24 41.40085 21.94762 35028 ft 480 kts 139°
2026-04-26 13:24 41.35192 22.00818 35032 ft 480 kts 139°
2026-04-26 13:25 41.30280 22.06858 35032 ft 481 kts 139°
2026-04-26 13:25 41.25364 22.12881 35035 ft 481 kts 139°
2026-04-26 13:26 41.20441 22.18900 35027 ft 481 kts 139°
2026-04-26 13:26 41.15501 22.24894 35018 ft 481 kts 142°
2026-04-26 13:27 41.10336 22.30419 35022 ft 480 kts 143°
2026-04-26 13:27 41.05146 22.35991 35016 ft 481 kts 143°
2026-04-26 13:28 40.99947 22.41563 35016 ft 480 kts 143°
2026-04-26 13:28 40.94746 22.47120 35003 ft 481 kts 143°
2026-04-26 13:29 40.89548 22.52688 35003 ft 481 kts 143°
2026-04-26 13:29 40.84338 22.58238 35003 ft 481 kts 143°
2026-04-26 13:30 40.79125 22.63784 35004 ft 481 kts 143°
2026-04-26 13:30 40.73912 22.69323 35005 ft 481 kts 143°
2026-04-26 13:31 40.68695 22.74855 34997 ft 481 kts 143°
2026-04-26 13:31 40.64365 22.79437 35009 ft 481 kts 143°
2026-04-26 13:32 40.58298 22.85838 34982 ft 481 kts 143°
2026-04-26 13:32 40.53074 22.91339 34980 ft 481 kts 143°
2026-04-26 13:33 40.47845 22.96829 34982 ft 481 kts 143°
2026-04-26 13:33 40.43703 23.01801 34983 ft 483 kts 134°
2026-04-26 13:34 40.39126 23.08186 34992 ft 483 kts 134°
2026-04-26 13:34 40.34496 23.14586 35007 ft 484 kts 134°
2026-04-26 13:35 40.29852 23.20976 35011 ft 484 kts 134°
2026-04-26 13:35 40.25209 23.27370 35019 ft 484 kts 135°
2026-04-26 13:36 40.20557 23.33745 35018 ft 484 kts 134°
2026-04-26 13:36 40.15908 23.40127 35009 ft 484 kts 134°
2026-04-26 13:37 40.11256 23.46474 35029 ft 483 kts 134°
2026-04-26 13:37 40.06609 23.52817 35030 ft 483 kts 134°
2026-04-26 13:38 40.01955 23.59148 35029 ft 483 kts 134°
2026-04-26 13:38 39.97294 23.65461 35027 ft 483 kts 134°
2026-04-26 13:39 39.92639 23.71775 35031 ft 483 kts 134°
2026-04-26 13:39 39.87981 23.78077 35029 ft 483 kts 134°
2026-04-26 13:40 39.83322 23.84363 35034 ft 482 kts 134°
2026-04-26 13:40 39.78669 23.90644 35035 ft 482 kts 134°
2026-04-26 13:41 39.74000 23.96898 35032 ft 482 kts 134°
2026-04-26 13:41 39.69340 24.03151 35036 ft 482 kts 134°
2026-04-26 13:42 39.64679 24.09405 35046 ft 482 kts 134°
2026-04-26 13:42 39.60040 24.15599 35042 ft 482 kts 134°
2026-04-26 13:43 39.55344 24.21859 35040 ft 481 kts 134°
2026-04-26 13:43 39.50703 24.28032 35045 ft 481 kts 134°
2026-04-26 13:44 39.46033 24.34240 35045 ft 481 kts 134°
2026-04-26 13:44 39.41359 24.40418 35050 ft 481 kts 134°
2026-04-26 13:45 39.36690 24.46597 35049 ft 480 kts 134°
2026-04-26 13:45 39.32030 24.52763 35046 ft 480 kts 133°
2026-04-26 13:46 39.27405 24.58971 35045 ft 479 kts 133°
2026-04-26 13:46 39.22774 24.65156 35046 ft 479 kts 133°
2026-04-26 13:47 39.18139 24.71322 35044 ft 478 kts 133°
2026-04-26 13:47 39.13511 24.77481 35043 ft 478 kts 133°
2026-04-26 13:48 39.08862 24.83615 35043 ft 479 kts 134°
2026-04-26 13:48 39.04168 24.89692 35043 ft 479 kts 134°
2026-04-26 13:49 38.99475 24.95764 35038 ft 478 kts 133°
2026-04-26 13:49 38.94790 25.01823 35058 ft 478 kts 133°
2026-04-26 13:50 38.90118 25.07875 35055 ft 477 kts 133°
2026-04-26 13:50 38.85441 25.13890 35047 ft 476 kts 133°
2026-04-26 13:51 38.80772 25.19905 35046 ft 475 kts 133°
2026-04-26 13:51 38.76101 25.25900 35042 ft 475 kts 133°
2026-04-26 13:52 38.71426 25.31893 35038 ft 475 kts 133°
2026-04-26 13:52 38.66773 25.37823 35052 ft 475 kts 133°
2026-04-26 13:53 38.62098 25.43792 35046 ft 474 kts 133°
2026-04-26 13:53 38.57428 25.49746 35045 ft 474 kts 133°
2026-04-26 13:54 38.52748 25.55689 35041 ft 474 kts 133°
2026-04-26 13:54 38.48068 25.61617 35039 ft 474 kts 133°
2026-04-26 13:55 38.41843 25.69497 35041 ft 473 kts 133°
2026-04-26 13:56 38.34045 25.79355 35018 ft 473 kts 133°
2026-04-26 13:56 38.29374 25.85259 35010 ft 473 kts 133°
2026-04-26 13:57 38.24279 25.90562 34993 ft 477 kts 148°
2026-04-26 13:57 38.18159 25.93832 35003 ft 479 kts 160°
2026-04-26 13:58 38.11873 25.96652 35019 ft 479 kts 159°
2026-04-26 13:58 38.05589 25.99499 35017 ft 480 kts 159°
2026-04-26 13:59 37.99347 26.02354 35015 ft 480 kts 159°
2026-04-26 13:59 37.93057 26.05194 35014 ft 480 kts 159°
2026-04-26 14:00 37.80475 26.10892 35014 ft 480 kts 159°
2026-04-26 14:01 37.74179 26.13723 35011 ft 480 kts 159°
2026-04-26 14:01 37.67884 26.16562 35006 ft 480 kts 159°
2026-04-26 14:02 37.61591 26.19386 35008 ft 480 kts 159°
2026-04-26 14:02 37.55291 26.22208 35009 ft 481 kts 159°
2026-04-26 14:03 37.48991 26.25026 35006 ft 480 kts 159°
2026-04-26 14:03 37.42694 26.27826 35007 ft 480 kts 158°
2026-04-26 14:04 37.36398 26.30652 35012 ft 480 kts 158°
2026-04-26 14:04 37.30101 26.33449 35006 ft 480 kts 158°
2026-04-26 14:05 37.23799 26.36247 34999 ft 480 kts 158°
2026-04-26 14:05 37.17509 26.39052 34999 ft 480 kts 158°
2026-04-26 14:06 37.11205 26.41840 34987 ft 481 kts 158°
2026-04-26 14:06 37.08052 26.43229 34749 ft 479 kts 158°
2026-04-26 14:06 37.04946 26.44605 34044 ft 482 kts 158°
2026-04-26 14:06 37.01769 26.46006 33213 ft 485 kts 158°
2026-04-26 14:07 36.98594 26.47413 32529 ft 484 kts 157°
2026-04-26 14:07 36.95444 26.48888 31811 ft 481 kts 152°
2026-04-26 14:07 36.92546 26.50879 31356 ft 470 kts 142°
2026-04-26 14:07 36.90004 26.53377 30791 ft 461 kts 131°
2026-04-26 14:08 36.87892 26.56319 30279 ft 450 kts 121°
2026-04-26 14:08 36.86246 26.59578 29724 ft 439 kts 111°
2026-04-26 14:08 36.85005 26.63014 29221 ft 430 kts 108°
2026-04-26 14:08 36.83847 26.66430 28725 ft 425 kts 108°
2026-04-26 14:09 36.82695 26.69806 28239 ft 420 kts 108°
2026-04-26 14:09 36.81552 26.73143 27745 ft 416 kts 108°
2026-04-26 14:09 36.80410 26.76445 27250 ft 413 kts 108°
2026-04-26 14:09 36.79278 26.79724 26759 ft 410 kts 108°
2026-04-26 14:10 36.78153 26.82983 26260 ft 407 kts 108°
2026-04-26 14:10 36.77033 26.86222 25756 ft 406 kts 108°
2026-04-26 14:10 36.75920 26.89442 25263 ft 404 kts 108°
2026-04-26 14:10 36.74814 26.92652 24763 ft 402 kts 108°
2026-04-26 14:11 36.72605 26.99020 23781 ft 399 kts 109°
2026-04-26 14:11 36.71510 27.02191 23244 ft 398 kts 109°
2026-04-26 14:11 36.70413 27.05345 22742 ft 395 kts 109°
2026-04-26 14:12 36.69321 27.08472 22268 ft 392 kts 109°
2026-04-26 14:12 36.68234 27.11586 21782 ft 390 kts 109°
2026-04-26 14:12 36.67158 27.14680 21298 ft 389 kts 109°
2026-04-26 14:12 36.66078 27.17756 20845 ft 387 kts 110°
2026-04-26 14:13 36.63941 27.23870 19863 ft 384 kts 110°
2026-04-26 14:13 36.62876 27.26908 19387 ft 381 kts 110°
2026-04-26 14:13 36.61820 27.29922 18910 ft 379 kts 110°
2026-04-26 14:14 36.60761 27.32923 18436 ft 377 kts 110°
2026-04-26 14:14 36.59716 27.35905 17908 ft 375 kts 110°
2026-04-26 14:14 36.58684 27.38861 17431 ft 371 kts 110°
2026-04-26 14:14 36.57656 27.41782 16968 ft 366 kts 111°
2026-04-26 14:15 36.56636 27.44666 16498 ft 362 kts 111°
2026-04-26 14:15 36.55630 27.47524 16041 ft 359 kts 111°
2026-04-26 14:15 36.54633 27.50348 15579 ft 355 kts 111°
2026-04-26 14:15 36.53642 27.53148 15116 ft 352 kts 111°
2026-04-26 14:16 36.52663 27.55918 14668 ft 349 kts 111°
2026-04-26 14:16 36.51687 27.58663 14220 ft 346 kts 111°
2026-04-26 14:16 36.50719 27.61385 13752 ft 343 kts 111°
2026-04-26 14:16 36.49761 27.64085 13275 ft 340 kts 111°
2026-04-26 14:17 36.48810 27.66757 12846 ft 336 kts 111°
2026-04-26 14:17 36.47870 27.69399 12402 ft 332 kts 111°
2026-04-26 14:17 36.46947 27.72012 11968 ft 329 kts 109°
2026-04-26 14:17 36.46321 27.74710 11532 ft 323 kts 98°
2026-04-26 14:18 36.45957 27.77449 11112 ft 320 kts 97°
2026-04-26 14:18 36.45603 27.80172 10685 ft 319 kts 97°
2026-04-26 14:18 36.45249 27.82844 10327 ft 315 kts 98°
2026-04-26 14:18 36.44894 27.85480 10204 ft 303 kts 98°
2026-04-26 14:19 36.44553 27.88012 10078 ft 293 kts 98°
2026-04-26 14:19 36.44221 27.90463 9953 ft 283 kts 98°
2026-04-26 14:19 36.43901 27.92848 9677 ft 279 kts 98°
2026-04-26 14:19 36.43579 27.95221 9335 ft 278 kts 98°
2026-04-26 14:20 36.43259 27.97580 9014 ft 276 kts 98°
2026-04-26 14:20 36.42942 27.99931 8690 ft 275 kts 98°
2026-04-26 14:20 36.42625 28.02268 8372 ft 274 kts 98°
2026-04-26 14:20 36.42414 28.03812 8165 ft 273 kts 98°
2026-04-26 14:21 36.42095 28.06135 7852 ft 273 kts 98°
2026-04-26 14:21 36.41778 28.08454 7529 ft 272 kts 98°
2026-04-26 14:21 36.41460 28.10767 7209 ft 272 kts 98°
2026-04-26 14:21 36.41142 28.13083 6894 ft 272 kts 97°
2026-04-26 14:22 36.40825 28.15398 6576 ft 273 kts 97°
2026-04-26 14:22 36.40508 28.17721 6234 ft 274 kts 97°
2026-04-26 14:22 36.40189 28.20036 5982 ft 270 kts 98°
2026-04-26 14:22 36.39868 28.22358 5468 ft 277 kts 98°
2026-04-26 14:23 36.39540 28.24723 5093 ft 278 kts 98°
2026-04-26 14:23 36.39215 28.27089 4760 ft 276 kts 95°
2026-04-26 14:23 36.39357 28.29335 4601 ft 251 kts 67°
2026-04-26 14:23 36.40291 28.31051 4270 ft 236 kts 36°
2026-04-26 14:24 36.41731 28.31853 3899 ft 224 kts
2026-04-26 14:24 36.43262 28.31818 3541 ft 217 kts 354°
2026-04-26 14:24 36.44747 28.31529 3188 ft 216 kts 336°
2026-04-26 14:24 36.45847 28.30350 2913 ft 211 kts 297°
2026-04-26 14:25 36.46172 28.28616 2642 ft 207 kts 266°
2026-04-26 14:25 36.45860 28.26893 2411 ft 202 kts 250°
2026-04-26 14:25 36.45390 28.25269 2135 ft 198 kts 250°
2026-04-26 14:25 36.44934 28.23699 2013 ft 186 kts 250°
2026-04-26 14:26 36.44510 28.22241 1919 ft 175 kts 250°
2026-04-26 14:26 36.44107 28.20858 1729 ft 165 kts 249°
2026-04-26 14:26 36.43727 28.19552 1525 ft 157 kts 249°
2026-04-26 14:26 36.43360 28.18292 1325 ft 154 kts 249°
2026-04-26 14:27 36.42998 28.17054 1115 ft 149 kts 249°
2026-04-26 14:27 36.42648 28.15859 945 ft 147 kts 249°
2026-04-26 14:27 36.42308 28.14669 762 ft 145 kts 250°
2026-04-26 14:27 36.41960 28.13504 599 ft 143 kts 250°
2026-04-26 14:28 36.41626 28.12343 420 ft 143 kts 251°
2026-04-26 14:28 36.41287 28.11171 229 ft 145 kts 251°
2026-04-26 14:28 36.40943 28.10003 40 ft 141 kts 251°
2026-04-26 14:28 36.40660 28.09031 30 ft 95 kts 250°
2026-04-26 14:29 36.40491 28.08453 28 ft 53 kts 250°
2026-04-26 14:29 36.40388 28.08115 28 ft 29 kts 245°
2026-04-26 14:29 36.40274 28.07949 28 ft 22 kts 223°
2026-04-26 14:29 36.40182 28.07859 28 ft 16 kts 197°
2026-04-26 14:30 36.40160 28.07944 28 ft 14 kts 73°
2026-04-26 14:30 36.40195 28.08071 28 ft 17 kts 70°
2026-04-26 14:30 36.40239 28.08221 28 ft 20 kts 70°
2026-04-26 14:30 36.40288 28.08388 28 ft 20 kts 70°
2026-04-26 14:31 36.40334 28.08545 28 ft 18 kts 70°
2026-04-26 14:31 36.40376 28.08686 28 ft 16 kts 70°
2026-04-26 14:31 36.40400 28.08814 28 ft 16 kts 85°
2026-04-26 14:31 36.40398 28.08933 28 ft 10 kts 92°
2026-04-26 14:32 36.40398 28.08978 28 ft 2 kts 87°
2026-04-26 14:32 36.40405 28.09020 28 ft 7 kts 74°
2026-04-26 14:32 36.40422 28.09083 28 ft 5 kts 69°
2026-04-26 14:32 36.40404 28.09119 28 ft 6 kts 160°
2026-04-26 14:33 36.40368 28.09136 28 ft 3 kts 160°
2026-04-26 14:33 36.40365 28.09137 28 ft 0 kts 160°